Location: Broekland
(52.3610°N, 6.2005°E)
Time: 23:21:43
(UTC+00:00)

Meteor 2-2 Rocket - Pass Details

Date: 19 May 2025
Orbit: 852 x 927 km, 81.3° (Epoch: 22 June)

Event Time Altitude Azimuth Distance (km) Brightness Sun altitude
Rises 20:57:38 0° 191° (S) 3,510 7.0 -10.3°
Reaches altitude 10° 21:00:04 10° 192° (SSW) 2,584 6.3 -10.5°
Maximum altitude 21:06:00 88° 279° (W) 926 4.4 -11.0°
Drops below altitude 10° 21:12:03 10° 13° (NNE) 2,638 7.4 -11.5°
Sets 21:14:34 0° 14° (NNE) 3,589 8.2 -11.8°
